Meteo Giornale » Osservazioni meteo Brasile » Uberaba
ore: 02:00 - Osservazioni Meteo Uberaba
Lat. 19° 47' S Lon. 47° 58' W Alt. 807 metri s.l.m.
26 °C
Sereno
Temp. 24 Ore
25 °C
36 °C
Nord/Nord-Est
16.7 Km/h
Dew point 13 °C
Umidità 44 %
Visibilità 10 Km
Il sole sorge alle ore 06:19
Il sole tramonta alle ore 18:03
| Data e Ora | Cielo e Fenomeni | T °C | DP °C | Um. % | Pres. hPa | Vis. km | Vento km/h | |
|---|---|---|---|---|---|---|---|---|
| Oggi h: 02:00 | Sereno | 26 | 13 | 44 | 1013 | 10 | N/NE 16.7 | |
| Oggi h: 01:00 | Sereno | 26 | 14 | 47 | 1014 | 10 | N 14.8 | |
| Oggi h: 00:00 | Sereno | 28 | 13 | 39 | 1014 | 10 | N 16.7 | |
| Ieri h: 23:00 | Sereno | 28 | 14 | 42 | 1014 | 10 | N 14.8 | |
| Ieri h: 22:00 | Sereno | 27 | 15 | 47 | 1014 | 10 | NO 11.1 | |
| Ieri h: 21:00 | Sereno | 29 | 14 | 39 | 1013 | 10 | N/NE 13 | |
| Ieri h: 20:00 | Sereno | 30 | 13 | 35 | 1012 | 10 | N 11.1 | |
| Ieri h: 19:00 | Sereno | 32 | 13 | 31 | 1012 | 8 | N 11.1 | |
| Ieri h: 18:00 | Molto Nuvoloso | 32 | 13 | 31 | 1012 | 8 | N 11.1 | |
| Ieri h: 17:00 | Nuvoloso | 34 | 13 | 28 | 1012 | 8 | N 16.7 | |
| Ieri h: 16:00 | Nuvoloso | 35 | 13 | 26 | 1012 | 10 | NO 20.3 | |
| Ieri h: 15:00 | Nuvoloso | 35 | 12 | 24 | 1012 | 10 | N/NO 22.2 | |
| Ieri h: 14:00 | Sereno | 36 | 13 | 25 | 1013 | 10 | N/NO 22.2 | |
| Ieri h: 13:00 | Poco Nuvoloso | 35 | 13 | 26 | 1014 | 10 | N 22.2 | |
| Ieri h: 12:00 | Poco Nuvoloso | 33 | 13 | 29 | 1015 | 10 | N/NO 24 | |
| Ieri h: 11:00 | Poco Nuvoloso | 32 | 14 | 33 | 1015 | 10 | N/NE 25.9 | |
| Ieri h: 10:00 | Nuvoloso | 30 | 14 | 37 | 1016 | 10 | NE 18.5 | |
| Ieri h: 09:00 | Nuvoloso | 28 | 14 | 42 | 1016 | 10 | N/NE 25.9 | |
| Ieri h: 08:00 | Poco Nuvoloso | 26 | 14 | 47 | 1016 | 10 | NE 22.2 | |
| Ieri h: 07:00 | Nuvoloso | 25 | 13 | 47 | 1016 | 10 | N/NE 18.5 | |
| Ieri h: 06:00 | Sereno | 26 | 13 | 44 | 1015 | 10 | N/NE 18.5 | |
| Ieri h: 05:00 | Sereno | 26 | 13 | 44 | 1014 | 10 | N/NE 13 | |
| Ieri h: 04:00 | Sereno | 26 | 13 | 44 | 1014 | 10 | N/NE 14.8 | |



